KE8KMM Weather Reports


time (UTC)temp
C
wind
direction
speed
KPH
gust
KPH
rain 1hr
cm
rain 24hr
cm
rain mn
cm
humidity
%
barometer
mb
20260508105956 2 233 1.6 3.2 0.00 0.00 0.00 94 1012.6
20260508105453 2 149 0.0 1.6 0.00 0.00 0.00 94 1012.5
20260508104950 2 206 1.6 3.2 0.00 0.00 0.00 94 1012.4
20260508104448 2 247 3.2 3.2 0.00 0.00 0.00 94 1012.7
20260508103944 2 212 1.6 3.2 0.00 0.00 0.00 94 1012.6
20260508103441 2 220 1.6 3.2 0.00 0.00 0.00 94 1012.3
20260508102938 2 188 1.6 1.6 0.00 0.00 0.00 94 1012.3
20260508102437 2 187 1.6 1.6 0.00 0.00 0.00 94 1012.4
20260508101933 3 216 1.6 3.2 0.00 0.00 0.00 94 1012.4
20260508101431 3 223 1.6 3.2 0.00 0.00 0.00 93 1012.2
20260508100928 3 213 1.6 3.2 0.00 0.00 0.00 93 1012.2
20260508100427 3 244 1.6 3.2 0.00 0.00 0.00 93 1012.4
20260508095922 3 227 3.2 3.2 0.00 0.00 0.00 93 1012.4
20260508095420 3 200 1.6 1.6 0.00 0.00 0.00 93 1012.4
20260508094916 3 194 1.6 3.2 0.00 0.00 0.00 93 1012.2
20260508094413 3 219 1.6 3.2 0.00 0.00 0.00 92 1012.6
20260508093910 3 256 1.6 3.2 0.00 0.00 0.00 92 1012.5
20260508093408 3 228 3.2 3.2 0.00 0.00 0.00 91 1012.8
20260508092905 4 164 0.0 1.6 0.00 0.00 0.00 90 1012.6
20260508092403 4 111 1.6 3.2 0.00 0.00 0.00 90 1012.7
20260508091901 5 183 0.0 1.6 0.00 0.00 0.00 89 1012.9
20260508091357 5 172 0.0 1.6 0.00 0.00 0.00 88 1012.7
20260508090855 5 222 1.6 3.2 0.00 0.00 0.00 87 1012.9
20260508090354 5 211 1.6 4.8 0.00 0.00 0.00 86 1012.6
20260508085849 6 250 4.8 8.0 0.00 0.00 0.00 84 1012.5
20260508085346 6 255 4.8 4.8 0.00 0.00 0.00 85 1012.6
20260508084842 6 176 1.6 3.2 0.00 0.00 0.00 84 1012.5
20260508084339 6 277 4.8 4.8 0.00 0.00 0.00 86 1012.5
20260508083837 6 208 3.2 3.2 0.00 0.00 0.00 87 1012.7
20260508083335 5 93 0.0 1.6 0.00 0.00 0.00 89 1012.7
20260508082834 5 114 0.0 0.0 0.00 0.00 0.00 90 1012.6
20260508082332 5 143 0.0 0.0 0.00 0.00 0.00 90 1012.7
20260508081829 5 149 0.0 0.0 0.00 0.00 0.00 90 1012.8
20260508081326 5 153 0.0 1.6 0.00 0.00 0.00 90 1012.6
20260508080823 5 177 0.0 1.6 0.00 0.00 0.00 90 1012.8
20260508080321 5 220 0.0 0.0 0.00 0.00 0.00 89 1012.8
20260508075817 5 146 0.0 0.0 0.00 0.00 0.00 89 1012.6
20260508075314 5 95 0.0 1.6 0.00 0.00 0.00 89 1012.7
20260508074812 5 139 0.0 0.0 0.00 0.00 0.00 89 1013.0
20260508074309 5 107 0.0 0.0 0.00 0.00 0.00 89 1012.9
20260508073806 5 9 0.0 1.6 0.00 0.00 0.00 90 1013.2
20260508073304 5 114 0.0 0.0 0.00 0.00 0.00 90 1013.1
20260508072759 5 122 0.0 0.0 0.00 0.00 0.00 89 1013.2
20260508072257 5 166 0.0 1.6 0.00 0.00 0.00 90 1013.2
20260508071754 5 163 0.0 1.6 0.00 0.00 0.00 89 1013.3
20260508071252 5 159 0.0 1.6 0.00 0.00 0.00 89 1013.1
20260508070749 5 70 1.6 3.2 0.00 0.00 0.00 90 1013.4
20260508070248 4 152 3.2 3.2 0.00 0.00 0.00 90 1013.4
20260508065744 4 199 1.6 1.6 0.00 0.00 0.00 90 1013.2
20260508065242 4 206 1.6 3.2 0.00 0.00 0.00 90 1013.3
20260508064740 4 233 1.6 3.2 0.00 0.00 0.00 90 1013.2
20260508064238 4 203 1.6 3.2 0.00 0.00 0.00 90 1013.0
20260508063735 3 203 1.6 1.6 0.00 0.00 0.00 90 1012.8
20260508063233 3 226 1.6 3.2 0.00 0.00 0.00 91 1012.9
20260508062730 3 242 3.2 3.2 0.00 0.00 0.00 91 1012.6
20260508062227 3 182 1.6 1.6 0.00 0.00 0.00 90 1012.9
20260508061724 3 207 0.0 0.0 0.00 0.00 0.00 90 1012.7
20260508061221 3 137 0.0 0.0 0.00 0.00 0.00 90 1012.6
20260508060718 3 129 0.0 1.6 0.00 0.00 0.00 91 1012.8
20260508060216 3 265 1.6 3.2 0.00 0.00 0.00 91 1012.8
20260508055711 3 260 3.2 3.2 0.00 0.00 0.00 91 1012.9
20260508055208 3 161 1.6 3.2 0.00 0.00 0.00 92 1012.8
20260508054704 3 244 3.2 3.2 0.00 0.00 0.00 92 1012.9
20260508054202 3 172 1.6 1.6 0.00 0.00 0.00 92 1013.1
20260508053659 3 216 3.2 3.2 0.00 0.00 0.00 92 1013.0
20260508053157 2 263 3.2 3.2 0.00 0.00 0.00 92 1013.2
20260508052654 2 191 1.6 3.2 0.00 0.00 0.00 92 1013.1
20260508052151 3 185 1.6 1.6 0.00 0.00 0.00 92 1013.0
20260508051647 3 136 0.0 1.6 0.00 0.00 0.00 92 1013.0
20260508051142 2 246 1.6 3.2 0.00 0.00 0.00 92 1013.2
20260508050638 2 212 1.6 1.6 0.00 0.00 0.00 91 1013.4
20260508050137 3 192 1.6 1.6 0.00 0.00 0.00 91 1013.3
20260508045632 3 171 0.0 1.6 0.00 0.00 0.00 91 1013.3
20260508045130 3 149 1.6 3.2 0.00 0.00 0.00 91 1013.3
20260508044627 3 210 1.6 3.2 0.00 0.00 0.00 91 1013.2
20260508044123 3 222 1.6 3.2 0.00 0.00 0.00 90 1013.2
20260508043620 3 231 1.6 3.2 0.00 0.00 0.00 90 1013.3
20260508043118 3 196 1.6 1.6 0.00 0.00 0.00 90 1013.2
20260508042614 3 216 1.6 1.6 0.00 0.00 0.00 90 1013.4
20260508042111 3 203 1.6 3.2 0.00 0.00 0.00 90 1013.2
20260508041607 3 215 1.6 3.2 0.00 0.00 0.00 89 1013.3
20260508041104 3 216 3.2 3.2 0.00 0.00 0.00 89 1013.2
20260508040601 3 234 1.6 1.6 0.00 0.00 0.00 90 1012.9
20260508040059 3 221 3.2 3.2 0.00 0.00 0.00 89 1013.0
20260508035555 3 253 3.2 4.8 0.00 0.00 0.00 89 1012.9
20260508035053 3 264 3.2 3.2 0.00 0.00 0.00 89 1012.8
20260508034549 3 173 1.6 3.2 0.00 0.00 0.00 89 1012.8
20260508034046 3 254 3.2 3.2 0.00 0.00 0.00 89 1012.9
20260508033544 3 243 3.2 3.2 0.00 0.00 0.00 89 1013.0
20260508033042 3 237 3.2 3.2 0.00 0.00 0.00 88 1013.1
20260508032538 3 214 3.2 3.2 0.00 0.00 0.00 88 1012.9
20260508032036 4 198 3.2 3.2 0.00 0.00 0.00 88 1012.9
20260508031533 3 234 1.6 3.2 0.00 0.00 0.00 88 1012.6
20260508031029 4 232 3.2 3.2 0.00 0.00 0.00 88 1012.9
20260508030526 4 258 3.2 3.2 0.00 0.00 0.00 88 1012.7
20260508030024 4 248 3.2 4.8 0.00 0.00 0.00 88 1012.9
20260508025519 4 257 3.2 3.2 0.00 0.00 0.00 87 1012.8
20260508025016 4 236 4.8 4.8 0.00 0.00 0.00 87 1013.0
20260508024512 4 239 4.8 4.8 0.00 0.00 0.00 87 1013.0
20260508024009 5 252 3.2 3.2 0.00 0.00 0.00 86 1012.9
20260508023506 5 230 3.2 3.2 0.00 0.00 0.00 86 1012.7
20260508023004 5 211 1.6 3.2 0.00 0.00 0.00 86 1012.9
20260508022459 5 216 1.6 3.2 0.00 0.00 0.00 85 1012.7
20260508021956 5 223 1.6 3.2 0.00 0.00 0.00 85 1012.8
20260508021452 5 240 3.2 3.2 0.00 0.00 0.00 84 1012.8
20260508020948 5 258 3.2 4.8 0.00 0.00 0.00 84 1012.8
20260508020446 5 203 1.6 3.2 0.00 0.00 0.00 83 1012.8
20260508015943 5 221 1.6 3.2 0.00 0.00 0.00 83 1012.8
20260508015441 5 210 3.2 3.2 0.00 0.00 0.00 83 1012.8
20260508014937 6 262 3.2 3.2 0.00 0.00 0.00 82 1012.7
20260508014434 6 176 1.6 3.2 0.00 0.00 0.00 82 1012.8
20260508013930 6 205 3.2 3.2 0.00 0.00 0.00 80 1012.6
20260508013426 6 209 1.6 3.2 0.00 0.00 0.00 80 1012.5
20260508012924 6 268 3.2 3.2 0.00 0.00 0.00 79 1012.4
20260508012420 7 137 1.6 3.2 0.00 0.00 0.00 79 1012.2
20260508011918 7 188 3.2 3.2 0.00 0.00 0.00 79 1012.5
20260508011416 7 243 3.2 3.2 0.00 0.00 0.00 78 1012.4
20260508010913 7 263 4.8 4.8 0.00 0.00 0.00 77 1012.3
20260508010410 7 212 3.2 3.2 0.00 0.00 0.00 77 1012.2
20260508005907 7 255 3.2 3.2 0.00 0.00 0.00 76 1012.2
20260508005404 8 249 1.6 3.2 0.00 0.00 0.00 76 1012.1
20260508004900 8 246 1.6 3.2 0.00 0.00 0.00 74 1012.0
20260508004356 8 267 3.2 3.2 0.00 0.00 0.00 73 1012.0
20260508003853 8 201 1.6 3.2 0.00 0.00 0.00 71 1011.9
20260508003350 8 220 1.6 1.6 0.00 0.00 0.00 70 1011.9
20260508002848 9 190 1.6 1.6 0.00 0.00 0.00 71 1011.8
20260508002344 10 193 1.6 1.6 0.00 0.00 0.00 70 1011.8
20260508001840 10 205 0.0 0.0 0.00 0.00 0.00 68 1012.1
20260508001336 10 152 0.0 0.0 0.00 0.00 0.00 64 1011.7
20260508000832 11 173 0.0 0.0 0.00 0.00 0.00 60 1011.7
20260508000329 11 121 0.0 1.6 0.00 0.00 0.00 59 1011.8
20260507235826 11 262 4.8 8.0 0.00 0.00 0.00 50 1011.7
20260507235323 12 293 3.2 3.2 0.00 0.00 0.00 53 1011.4
20260507234820 12 225 3.2 4.8 0.00 0.00 0.00 56 1011.7
20260507234317 12 200 1.6 3.2 0.00 0.00 0.00 53 1011.4
20260507233813 13 112 0.0 4.8 0.00 0.00 0.00 55 1011.4
20260507233311 13 143 0.0 0.0 0.00 0.00 0.00 52 1011.3
20260507232809 13 109 0.0 0.0 0.00 0.00 0.00 52 1011.4
20260507232306 14 149 0.0 0.0 0.00 0.00 0.00 49 1011.2
20260507231802 14 89 3.2 8.0 0.00 0.00 0.00 45 1011.2
20260507231259 14 196 1.6 9.7 0.00 0.00 0.00 48 1011.3
20260507230755 13 218 3.2 4.8 0.00 0.00 0.00 45 1011.1
20260507230253 13 191 8.0 9.7 0.00 0.00 0.00 46 1011.4
20260507225752 14 210 4.8 11.3 0.00 0.00 0.00 46 1011.4
20260507225249 15 233 6.4 9.7 0.00 0.00 0.00 48 1011.6
20260507224744 14 255 3.2 8.0 0.00 0.00 0.00 48 1011.3
20260507224241 14 228 9.7 14.5 0.00 0.00 0.00 47 1011.4
20260507223738 15 30 1.6 11.3 0.00 0.00 0.00 44 1011.7
20260507223234 14 165 6.4 12.9 0.00 0.00 0.00 44 1011.8
20260507222731 15 237 12.9 16.1 0.00 0.00 0.00 44 1011.4
20260507222227 15 286 6.4 14.5 0.00 0.00 0.00 45 1011.6
20260507221724 15 315 1.6 11.3 0.00 0.00 0.00 45 1011.6
20260507221220 15 218 8.0 12.9 0.00 0.00 0.00 45 1011.2
20260507220717 14 269 4.8 12.9 0.00 0.00 0.00 47 1011.4
20260507220216 14 144 6.4 14.5 0.00 0.00 0.00 47 1011.3
20260507215712 15 252 4.8 12.9 0.00 0.00 0.00 45 1011.4
20260507215209 15 215 6.4 12.9 0.00 0.00 0.00 46 1011.3
20260507214706 14 221 8.0 11.3 0.00 0.00 0.00 47 1011.1
20260507214203 15 285 3.2 12.9 0.00 0.00 0.00 47 1011.1
20260507213658 15 223 4.8 8.0 0.00 0.00 0.00 51 1011.1
20260507213156 15 318 12.9 17.7 0.00 0.00 0.00 45 1011.0
20260507212652 15 201 9.7 16.1 0.00 0.00 0.00 50 1011.1
20260507212149 16 34 4.8 16.1 0.00 0.00 0.00 48 1010.7
20260507211646 15 239 3.2 11.3 0.00 0.00 0.00 49 1010.7
20260507211141 15 250 11.3 17.7 0.00 0.00 0.00 48 1010.6
20260507210639 15 197 6.4 12.9 0.00 0.00 0.00 50 1010.8
20260507210135 14 236 6.4 14.5 0.00 0.00 0.00 49 1010.4
20260507205632 14 138 9.7 22.5 0.00 0.00 0.00 50 1010.6
20260507205128 14 259 3.2 12.9 0.00 0.00 0.00 50 1010.5
20260507204625 14 280 11.3 17.7 0.00 0.00 0.00 49 1010.3
20260507204122 15 232 12.9 16.1 0.00 0.00 0.00 49 1010.7
20260507203620 15 98 3.2 8.0 0.00 0.00 0.00 48 1010.4
20260507203118 15 293 9.7 12.9 0.00 0.00 0.00 50 1010.5
20260507202613 15 235 11.3 14.5 0.00 0.00 0.00 47 1010.4
20260507202110 15 10 1.6 8.0 0.00 0.00 0.00 46 1010.3
20260507201605 15 65 1.6 8.0 0.00 0.00 0.00 46 1010.5
20260507201102 16 202 8.0 14.5 0.00 0.00 0.00 46 1010.4
20260507200557 16 227 6.4 16.1 0.00 0.00 0.00 48 1010.4
20260507200054 15 302 4.8 17.7 0.00 0.00 0.00 43 1010.5
20260507195551 15 234 12.9 27.4 0.00 0.00 0.00 46 1010.6
20260507195048 16 292 6.4 20.9 0.00 0.00 0.00 45 1010.7
20260507194544 16 204 1.6 16.1 0.00 0.00 0.00 46 1010.7
20260507194040 15 227 8.0 20.9 0.00 0.00 0.00 45 1010.7
20260507193538 16 213 1.6 14.5 0.00 0.00 0.00 44 1010.7
20260507193035 15 210 1.6 12.9 0.00 0.00 0.00 42 1010.8
20260507192531 16 203 4.8 25.7 0.00 0.00 0.00 46 1010.6
20260507192028 15 15 3.2 16.1 0.00 0.00 0.00 50 1010.6
20260507191523 16 274 14.5 25.7 0.00 0.00 0.00 48 1010.8
20260507191020 15 187 6.4 14.5 0.00 0.00 0.00 48 1010.7
20260507190518 16 272 14.5 17.7 0.00 0.00 0.00 44 1010.9
20260507190016 16 263 6.4 14.5 0.00 0.00 0.00 48 1010.6
20260507185514 16 224 8.0 9.7 0.00 0.00 0.00 44 1010.8
20260507185010 16 222 3.2 14.5 0.00 0.00 0.00 48 1010.9
20260507184509 15 197 3.2 12.9 0.00 0.00 0.00 46 1010.8
20260507184006 15 274 3.2 9.7 0.00 0.00 0.00 46 1010.7
20260507183502 15 207 11.3 12.9 0.00 0.00 0.00 46 1011.0
20260507182959 16 214 9.7 12.9 0.00 0.00 0.00 45 1011.0
20260507182455 15 275 3.2 12.9 0.00 0.00 0.00 45 1010.9
20260507181951 15 234 8.0 16.1 0.00 0.00 0.00 45 1010.8
20260507181448 15 200 9.7 22.5 0.00 0.00 0.00 47 1010.9
20260507180944 15 201 9.7 16.1 0.00 0.00 0.00 46 1010.7
20260507180441 16 266 9.7 17.7 0.00 0.00 0.00 52 1011.1
20260507175937 15 42 3.2 11.3 0.00 0.00 0.00 50 1011.0
20260507175434 15 199 9.7 14.5 0.00 0.00 0.00 51 1011.1
20260507174932 15 211 11.3 16.1 0.00 0.00 0.00 47 1011.0
20260507174429 15 261 6.4 11.3 0.00 0.00 0.00 46 1011.0
20260507173926 14 212 4.8 12.9 0.00 0.00 0.00 51 1011.1
20260507173423 15 257 11.3 16.1 0.00 0.00 0.00 47 1011.1
20260507172920 15 331 1.6 11.3 0.00 0.00 0.00 44 1011.3
20260507172417 14 15 3.2 9.7 0.00 0.00 0.00 47 1011.3
20260507171913 14 226 6.4 12.9 0.00 0.00 0.00 53 1011.4
20260507171409 15 338 12.9 16.1 0.00 0.00 0.00 48 1011.4
20260507170907 14 218 12.9 20.9 0.00 0.00 0.00 44 1011.4
20260507170403 14 227 11.3 22.5 0.00 0.00 0.00 49 1011.4
20260507165859 14 299 4.8 12.9 0.00 0.00 0.00 49 1011.6
20260507165355 15 211 11.3 12.9 0.00 0.00 0.00 49 1011.6
20260507164851 14 107 12.9 16.1 0.00 0.00 0.00 47 1011.7
20260507164348 14 251 4.8 12.9 0.00 0.00 0.00 48 1011.4
20260507163846 14 213 8.0 16.1 0.00 0.00 0.00 48 1011.4
20260507163343 14 43 4.8 14.5 0.00 0.00 0.00 50 1011.4
20260507162839 13 223 4.8 14.5 0.00 0.00 0.00 47 1011.7
20260507162335 14 309 4.8 11.3 0.00 0.00 0.00 47 1011.7
20260507161832 14 179 8.0 16.1 0.00 0.00 0.00 47 1011.8
20260507161329 13 218 6.4 17.7 0.00 0.00 0.00 47 1011.7
20260507160825 15 223 3.2 11.3 0.00 0.00 0.00 47 1011.4
20260507160321 14 254 11.3 14.5 0.00 0.00 0.00 49 1011.7
20260507155818 14 279 4.8 14.5 0.00 0.00 0.00 49 1011.4
20260507155314 14 165 3.2 14.5 0.00 0.00 0.00 47 1011.7
20260507154810 14 214 3.2 14.5 0.00 0.00 0.00 49 1011.7
20260507154308 14 91 1.6 8.0 0.00 0.00 0.00 47 1011.6
20260507153804 14 213 4.8 11.3 0.00 0.00 0.00 51 1011.7
20260507153301 14 208 11.3 14.5 0.00 0.00 0.00 54 1011.7
20260507152757 13 211 16.1 20.9 0.00 0.00 0.00 49 1011.6
20260507152254 13 128 1.6 16.1 0.00 0.00 0.00 54 1011.6
20260507151749 13 230 3.2 9.7 0.00 0.00 0.00 49 1011.9
20260507151246 13 191 6.4 17.7 0.00 0.00 0.00 48 1011.7
20260507150743 13 274 9.7 16.1 0.00 0.00 0.00 55 1011.8
20260507150240 13 255 4.8 8.0 0.00 0.00 0.00 52 1011.8
20260507145736 13 195 8.0 14.5 0.00 0.00 0.00 52 1012.0
20260507145232 13 281 4.8 8.0 0.00 0.00 0.00 51 1012.1
20260507144730 13 86 8.0 16.1 0.00 0.00 0.00 51 1012.3
20260507144227 12 155 0.0 11.3 0.00 0.00 0.00 53 1012.1
20260507143723 12 293 8.0 16.1 0.00 0.00 0.00 51 1012.2
20260507143221 13 55 6.4 9.7 0.00 0.00 0.00 50 1012.1
20260507142717 12 193 8.0 11.3 0.00 0.00 0.00 53 1012.1
20260507142213 12 209 4.8 16.1 0.00 0.00 0.00 57 1012.4
20260507141709 12 248 3.2 11.3 0.00 0.00 0.00 54 1012.2
20260507141207 13 121 1.6 9.7 0.00 0.00 0.00 58 1012.4
20260507140703 12 222 6.4 9.7 0.00 0.00 0.00 59 1012.4
20260507140201 12 219 1.6 4.8 0.00 0.00 0.00 63 1012.6
20260507135657 11 189 3.2 8.0 0.00 0.00 0.00 60 1012.8
20260507135155 12 234 8.0 11.3 0.00 0.00 0.00 65 1012.5
20260507134651 12 212 6.4 9.7 0.00 0.00 0.00 65 1012.9
20260507134147 12 122 0.0 1.6 0.00 0.00 0.00 67 1012.8
20260507133643 11 217 3.2 4.8 0.00 0.00 0.00 66 1012.9
20260507133141 12 161 4.8 4.8 0.00 0.00 0.00 64 1012.7
20260507132638 11 109 0.0 9.7 0.00 0.00 0.00 70 1012.9
20260507132134 11 91 1.6 3.2 0.00 0.00 0.00 74 1013.0
20260507131631 10 113 0.0 1.6 0.00 0.00 0.00 78 1013.1
20260507131129 10 126 1.6 3.2 0.00 0.00 0.00 80 1013.1
20260507130625 10 116 0.0 1.6 0.00 0.00 0.00 79 1012.9
20260507130123 10 82 1.6 3.2 0.00 0.00 0.00 80 1012.9
20260507125621 9 69 0.0 1.6 0.00 0.00 0.00 81 1013.0
20260507125119 8 48 1.6 1.6 0.00 0.00 0.00 84 1013.0
20260507124614 8 65 1.6 3.2 0.00 0.00 0.00 85 1013.0
20260507124113 8 100 1.6 1.6 0.00 0.00 0.00 86 1012.9
20260507123611 7 125 0.0 3.2 0.00 0.00 0.00 87 1012.8
20260507123107 7 103 0.0 1.6 0.00 0.00 0.00 90 1012.9
20260507122602 6 100 1.6 1.6 0.00 0.00 0.00 93 1013.0
20260507122058 6 114 0.0 3.2 0.00 0.00 0.00 95 1012.9
20260507121554 6 121 0.0 1.6 0.00 0.00 0.00 96 1013.0
20260507121051 5 84 0.0 0.0 0.00 0.00 0.00 96 1013.0
20260507120547 5 113 1.6 1.6 0.00 0.00 0.00 96 1013.1
20260507120044 4 92 3.2 4.8 0.00 0.00 0.00 96 1013.0
20260507115540 3 182 0.0 1.6 0.00 0.00 0.00 96 1013.1
20260507115036 3 120 0.0 1.6 0.00 0.00 0.00 96 1013.0
20260507114532 3 100 0.0 1.6 0.00 0.00 0.00 96 1012.9
20260507114029 3 116 0.0 0.0 0.00 0.00 0.00 96 1013.0
20260507113526 2 129 0.0 0.0 0.00 0.00 0.00 96 1012.9
20260507113024 2 162 0.0 0.0 0.00 0.00 0.00 95 1012.9
20260507112521 2 160 0.0 0.0 0.00 0.00 0.00 95 1013.0
20260507112017 1 117 0.0 0.0 0.00 0.00 0.00 95 1012.8
20260507111515 1 145 0.0 1.6 0.00 0.00 0.00 95 1012.9
20260507111011 1 177 0.0 1.6 0.00 0.00 0.00 95 1012.8
20260507110508 1 190 1.6 1.6 0.00 0.00 0.00 95 1012.8